User: anonymous   Login
Location: Luna
(33.8188°N, 108.9564°W)
Time: 22:42:29
(UTC+00:00)
Language:

CSL-04 DEB - Orbit

View from above orbital plane
View from above orbital plane
View from above satellite
View from above satellite

Ground track
Ground track

The orbit data is extracted from the following two-line orbital elements,

1 26181U 99057BT  23333.43252604  .00002118  00000-0  43613-3 0  9990
2 26181  98.6790 127.9649 0015511 103.7771 315.2813 14.61574109261433
Epoch (UTC): 29 November 2023 10:22:50
Eccentricity: 0.0015511
inclination: 98.6790°
perigee height: 677 km
apogee height: 699 km
right ascension of ascending node: 127.9649°
argument of perigee: 103.7771°
revolutions per day: 14.61574109
mean anomaly at epoch: 315.2813°
orbit number at epoch: 26143

The dashed part of the orbit path shows where the satellite is in the earth's shadow,  

DLR